sat.trackr.live / text

‹ back to catalog

STARLINK-31407

NORAD 59250 · 2024-049V

PAYLOAD ACTIVE UNKNOWN

§ Identity

Operator
Country
US
Launch date
2024-03-16
Launch site
AFETR
Launch vehicle
Mass (kg)
RCS (m²)

Purposes: comms

External: N2YO · Heavens-Above · Gunter

§ Orbital elements

Epoch: 2026-09-20T22:03:20.520000Z

Period
94.27 min
Inclination
43.0023°
Eccentricity
0.0001415
Mean motion
15.27589405 rev/d
Perigee alt
482.1 km
Apogee alt
484.0 km
Semi-major
6,861.2 km
B*
1.1688e-4
RAAN
109.7496°
Arg perigee
266.5305°
Mean anomaly
93.5385°
Rev number
14,238

§ Raw data

STARLINK-314071 59250U 24049V   26263.91898750  .00002956  00000+0  11688-3 0  99942 59250  43.0023 109.7496 0001415 266.5305  93.5385 15.27589405142386

JSON: /api/v1/satellites/59250 · /tle

For live sub-satellite position, see the globe view (requires WebGL).

§ Visibility from observer

Set your observer location to see the next 7 days of passes ≥ 10°. The values pass through the URL so the page stays shareable.

No JS? Fill the form by hand. The geolocation button needs JavaScript.